Wind_Speed
25 24 23 22 22 22 22 22 22 22 23 23 24 25 26 27 28 30 32 33 35 37 38 39 39 40 41 41 42 43 43 44 45 46 47 47 47 48 48 48 48 48 47 47 46 45 44 43 41 40 37 35 32 29 26 23 20 18 16 15 14 13 13 12 12 11 11 11 11 11 11 11 11 11
21 20 20 20 20 20 20 20 20 20 21 22 22 23 24 25 26 27 29 30 31 32 33 34 35 36 37 38 39 39 40 41 41 42 43 43 44 44 45 45 46 46 46 47 47 47 46 45 45 44 43 41 40 38 36 33 30 27 24 22 19 17 16 15 14 13 12 11 10 10 10 10 10 10
19 18 18 18 18 18 17 17 17 18 18 19 20 21 22 22 23 24 25 26 27 28 29 30 31 31 32 33 34 35 35 36 37 38 39 39 40 40 41 42 42 42 43 44 45 45 45 45 45 45 45 44 43 42 41 40 38 36 34 32 30 27 25 23 21 19 17 16 14 13 12 11 11 11
16 16 16 16 17 16 16 16 16 16 16 17 18 19 18 18 19 20 21 22 24 25 26 26 27 27 28 29 29 30 31 32 33 33 34 35 36 37 37 38 39 39 40 41 41 41 42 42 43 44 44 44 44 44 43 42 41 40 39 38 37 36 34 33 31 29 28 26 24 22 21 19 18 17
13 14 15 15 15 15 14 14 14 15 14 15 15 16 16 16 16 16 17 19 20 22 23 23 23 24 25 26 27 27 28 29 29 30 30 31 32 32 33 34 35 35 37 37 37 38 38 38 39 39 40 41 41 42 42 43 42 42 41 40 39 38 37 37 36 35 35 34 32 32 30 29 28 27
12 12 12 13 13 13 13 13 12 12 12 12 12 12 13 13 14 15 16 16 17 18 19 20 20 21 22 23 24 24 25 25 26 26 27 28 28 29 29 30 31 32 33 33 34 34 35 35 35 36 36 36 37 37 38 39 40 40 41 41 40 39 38 37 36 36 36 35 35 35 34 34 34 33
12 11 10 10 10 10 10 10 10 10 10 9 9 10 10 10 11 12 13 14 14 15 15 16 17 17 18 19 20 21 22 22 23 24 24 25 25 26 26 27 27 28 28 29 29 30 31 31 32 32 32 33 33 33 33 34 35 36 36 37 38 38 38 38 37 36 36 35 34 34 34 34 34 34
12 11 10 9 9 9 8 7 7 7 6 6 6 7 7 8 8 9 10 10 11 11 12 12 13 14 15 16 17 18 19 20 20 21 22 22 23 23 24 24 25 25 25 25 26 26 27 27 28 28 29 29 29 29 30 30 30 31 31 32 32 33 34 35 35 35 35 35 34 33 33 32 32 32
10 9 9 9 9 9 8 7 6 5 5 4 4 4 4 5 5 6 7 7 7 8 9 10 10 11 12 13 14 15 16 17 18 19 20 20 21 21 22 22 22 22 22 22 22 23 23 23 24 24 25 25 26 26 26 27 27 27 27 27 27 28 28 29 30 30 31 31 32 32 31 31 31 30
9 9 8 8 8 8 8 7 7 5 4 4 3 2 1 2 2 3 4 4 5 5 6 7 8 9 10 11 11 12 14 15 16 17 18 18 19 19 20 20 20 20 20 20 20 20 20 20 21 21 21 22 22 22 23 23 24 24 24 24 23 23 23 24 24 24 25 25 26 26 27 27 27 27
9 10 10 8 8 8 8 7 7 5 4 2 2 2 2 2 2 2 2 3 3 4 5 6 7 7 8 9 10 11 12 13 14 15 16 17 17 17 17 18 19 19 19 18 18 18 18 18 18 18 19 19 19 19 20 20 20 20 20 20 20 20 20 19 19 19 19 20 20 20 20 21 21 22
8 9 9 8 8 8 8 7 7 7 6 4 2 1 3 4 5 5 5 5 6 6 6 7 7 8 8 9 9 10 11 12 12 13 14 15 15 16 16 16 16 17 18 18 17 17 17 16 16 16 17 17 17 17 17 17 17 17 17 16 16 16 16 16 16 16 15 15 15 15 15 15 15 15
7 7 7 7 7 8 8 7 7 7 7 7 6 5 5 5 6 6 7 8 8 8 9 9 10 11 11 11 12 12 13 13 14 14 14 14 14 14 16 16 16 15 15 16 17 16 16 15 15 15 15 16 16 16 15 15 14 14 14 13 13 13 13 13 13 13 12 12 12 11 11 11 11 11
8 8 8 7 8 9 9 8 8 8 7 7 7 7 7 8 8 8 9 9 9 9 10 10 11 12 13 13 14 14 14 15 15 16 16 16 15 14 14 16 17 16 15 14 15 15 15 15 15 15 15 15 15 15 14 14 13 12 12 12 11 11 10 10 9 9 9 9 9 8 8 7 7 7
10 11 11 10 10 10 11 11 10 10 10 10 9 9 9 8 9 10 10 10 11 11 11 11 12 13 13 14 15 15 16 16 16 16 17 17 17 16 15 15 15 16 17 16 16 15 15 15 14 14 14 14 15 15 14 13 12 12 11 11 11 10 10 9 8 8 7 6 6 6 5 5 4 3
13 14 13 13 12 12 13 13 13 12 11 12 12 12 10 10 9 10 10 10 11 12 13 13 13 13 14 15 15 16 17 17 18 18 17 17 16 16 16 15 14 14 15 16 16 15 15 14 14 14 14 13 13 13 14 13 12 12 11 10 10 9 9 9 8 8 7 6 5 5 4 3 3 2
17 17 17 15 14 14 14 14 14 14 14 13 13 13 13 12 11 11 10 10 10 12 13 13 14 14 15 15 15 16 16 17 17 18 18 17 17 17 17 17 16 14 13 13 14 14 14 14 13 13 13 13 13 13 12 12 12 12 11 10 9 9 9 8 8 8 7 7 7 6 5 5 4 4
19 19 19 18 17 16 16 16 17 17 17 17 16 15 15 14 13 12 12 12 13 13 14 14 15 14 15 16 16 16 16 16 16 18 18 18 17 17 17 17 17 16 15 14 14 13 13 14 14 13 13 12 13 13 13 13 13 13 12 11 10 10 10 10 9 9 8 8 8 8 7 8 7 6
20 21 21 20 20 19 19 20 21 21 21 21 20 20 18 17 15 14 15 15 16 16 15 15 15 15 15 16 17 17 16 15 16 17 19 19 18 17 17 17 16 15 15 15 14 14 13 13 13 13 13 12 12 13 12 12 12 12 13 13 13 13 13 12 12 12 12 11 12 12 12 12 12 11
25 25 24 23 24 24 23 23 24 24 24 24 25 25 24 22 20 19 18 17 17 18 18 17 16 16 15 15 15 15 16 15 16 17 18 19 19 19 18 19 18 16 14 13 13 13 13 13 13 13 13 13 13 13 13 13 12 13 13 13 14 14 15 14 14 14 14 14 15 16 16 16 17 17
30 30 30 29 29 29 29 29 28 28 28 28 29 29 29 28 27 25 23 21 21 21 21 21 20 19 18 16 14 14 14 16 17 18 19 19 20 19 19 20 21 20 18 15 14 13 13 13 14 14 14 14 14 14 14 14 15 15 16 15 14 14 15 15 15 15 16 16 16 17 17 17 18 19
34 35 35 35 35 35 35 34 33 32 33 34 34 33 32 33 33 31 29 27 25 25 24 24 23 22 20 18 15 14 15 16 18 19 20 20 21 20 20 21 22 23 22 19 17 17 16 15 15 16 17 16 16 16 16 17 18 19 19 18 17 17 17 17 17 18 19 19 20 20 20 19 19 19
36 37 37 37 39 40 40 40 40 39 40 41 40 38 36 34 34 34 34 32 30 28 27 26 25 24 22 19 17 17 17 18 19 20 20 20 21 22 22 23 24 26 26 24 21 20 20 19 18 19 19 20 20 19 19 20 21 22 22 21 21 20 20 21 22 22 22 22 23 23 24 24 24 23
38 38 38 40 41 42 43 43 43 44 45 45 45 44 40 35 33 35 38 39 37 33 31 29 27 25 23 21 20 20 20 21 22 23 23 23 23 23 24 25 25 27 28 27 26 25 24 24 23 23 23 23 24 24 24 24 25 26 26 26 25 25 25 25 26 26 26 27 28 28 28 28 28 28
40 39 38 38 40 42 42 41 42 44 45 47 47 47 44 41 40 41 42 43 42 39 35 32 30 28 27 25 25 24 25 25 26 26 26 26 26 27 28 27 27 28 29 30 29 29 29 29 29 29 29 28 28 27 28 29 30 31 31 31 31 31 31 31 31 31 32 32 32 33 33 32 32 32
42 40 36 34 35 38 38 39 43 46 46 46 47 47 47 47 46 45 44 44 44 44 41 38 36 34 32 31 30 29 29 29 29 29 29 29 30 31 31 31 31 31 32 34 35 35 35 35 35 35 35 35 34 32 32 32 34 35 35 36 36 36 36 36 37 37 38 38 37 37 37 37 37 37
45 44 41 39 40 42 44 46 49 51 48 47 47 47 48 48 48 47 47 46 46 46 45 44 42 40 38 36 35 35 34 34 35 35 36 36 37 37 37 37 36 35 35 37 38 39 39 40 39 38 38 37 37 37 37 37 38 39 40 41 42 42 42 42 42 43 43 43 43 43 42 42 42 41
50 48 46 46 48 51 53 54 55 55 54 52 49 47 46 46 46 45 46 47 48 49 49 48 48 46 44 42 41 41 40 40 41 41 42 44 45 45 45 45 44 42 41 41 41 42 44 46 46 44 42 41 40 39 39 40 41 42 43 44 46 47 49 50 50 49 49 49 49 48 48 47 47 47
55 53 52 53 54 56 56 57 57 58 58 57 52 48 47 45 42 41 43 45 48 50 51 52 52 51 51 49 47 46 46 45 46 47 49 50 51 51 51 50 49 48 48 47 47 47 49 51 52 52 51 50 49 47 46 45 45 46 46 46 47 49 51 52 53 54 55 55 55 56 56 56 56 56
60 59 57 57 58 58 58 59 59 59 61 61 58 55 53 50 47 48 50 50 51 52 53 54 55 55 56 56 55 54 52 51 51 52 54 55 55 56 55 54 52 52 53 53 54 54 54 55 56 56 57 57 56 55 54 54 54 54 55 55 55 56 56 56 56 57 57 58 59 60 61 62 63 63
64 64 62 59 59 60 62 63 63 63 64 64 63 62 62 60 58 59 58 56 56 56 57 57 58 58 59 60 60 60 60 59 59 59 60 61 61 61 60 59 57 57 57 58 58 58 58 58 58 58 58 59 59 59 61 62 62 63 63 63 64 65 65 64 63 62 61 61 62 62 63 64 66 67
66 67 66 65 64 65 66 68 69 69 68 68 67 67 68 68 68 69 67 65 64 64 63 62 63 63 63 63 63 64 64 65 66 67 67 68 68 67 66 64 63 62 62 62 62 62 61 60 60 60 60 63 65 68 70 71 71 70 70 69 70 71 71 72 72 71 70 69 68 67 66 66 67 68
68 68 69 71 72 72 72 72 73 74 74 73 73 73 74 73 74 75 75 74 72 71 70 68 68 68 68 68 68 67 67 69 70 72 73 74 74 74 72 70 69 68 68 68 67 66 65 65 66 67 69 72 74 76 76 77 77 77 76 76 76 76 76 76 77 78 78 78 77 76 73 71 70 70
70 70 71 74 77 78 77 77 77 76 76 77 77 77 77 78 78 78 79 78 77 77 76 74 73 72 72 72 71 71 71 72 73 75 76 77 78 79 78 77 76 75 74 74 73 72 72 73 75 77 79 81 81 81 81 82 83 83 83 83 83 83 82 81 81 82 84 84 84 82 80 78 76 75
71 73 76 78 81 82 82 82 82 81 80 80 80 80 79 79 80 80 80 80 81 81 80 80 79 79 78 77 77 76 76 76 76 77 78 79 80 81 82 83 83 83 82 81 81 81 81 82 83 84 85 85 85 86 87 89 89 89 90 90 89 88 87 87 88 89 90 90 88 86 84 83 82 81
73 74 76 79 83 85 86 86 86 86 85 84 83 83 83 83 83 82 82 82 82 83 83 83 84 84 84 84 84 84 83 83 82 82 82 82 83 84 85 86 87 88 89 89 89 89 90 91 91 91 91 90 90 91 92 94 95 95 96 96 95 94 93 94 94 94 92 90 88 86 86 85 85 85
80 80 80 81 82 85 87 88 89 89 89 88 87 87 87 87 87 87 87 86 85 85 85 86 87 87 88 89 90 90 90 90 90 90 90 89 89 89 90 91 91 92 93 94 95 96 97 98 99 99 99 99 99 99 99 100 100 99 99 98 97 96 96 95 94 92 90 88 87 87 87 87 88 89
89 90 90 89 88 87 88 88 89 90 91 91 91 92 92 92 92 92 92 92 92 92 93 93 94 94 94 94 95 95 96 96 96 96 96 96 96 96 96 97 97 98 99 100 101 102 103 104 105 105 106 106 106 105 104 103 101 100 98 97 95 94 92 91 90 90 90 89 89 90 90 91 91 92
96 97 97 97 97 97 97 96 95 95 95 95 96 97 97 97 98 98 98 98 99 99 99 99 99 99 99 99 98 98 98 98 98 98 99 100 101 101 102 102 102 103 105 106 107 108 108 107 107 106 106 105 104 103 102 101 100 99 99 98 96 94 93 93 92 92 92 92 92 93 93 94 95 95
102 102 103 103 104 104 105 105 105 104 103 103 103 103 103 104 104 104 104 105 105 105 104 103 103 102 102 102 102 102 101 101 100 100 100 101 102 103 104 105 106 107 108 109 110 110 109 108 107 107 106 105 104 103 103 103 103 102 102 102 101 101 100 100 100 100 99 99 99 98 98 98 99 99
106 107 108 109 110 110 111 111 111 111 111 110 110 109 109 109 108 108 109 109 110 111 111 110 110 109 108 107 107 106 106 106 105 105 105 105 105 105 105 105 106 106 107 108 109 109 109 110 110 109 109 109 108 108 108 107 107 107 107 108 108 108 107 108 108 107 107 106 106 105 105 105 105 105
111 113 114 115 115 116 116 117 117 117 116 116 115 115 114 114 113 112 112 112 112 113 113 114 114 114 114 114 113 113 112 112 111 111 111 111 111 110 110 109 109 109 109 109 110 110 111 111 112 112 112 111 111 111 111 111 111 111 112 112 112 112 112 112 112 111 111 110 110 110 110 110 110 111
117 119 120 121 122 122 122 122 122 122 121 121 120 120 119 118 118 117 116 116 116 116 116 116 117 117 117 117 117 118 118 118 118 118 118 118 117 117 116 116 115 115 115 114 114 115 115 115 115 115 114 114 114 114 114 114 114 114 114 115 115 115 115 115 115 115 115 114 114 113 113 113 114 114
124 125 126 127 128 128 128 128 127 126 126 125 124 123 122 121 120 120 120 120 120 120 120 120 120 119 119 119 119 119 119 120 120 120 121 121 121 120 120 120 119 119 119 119 118 118 118 118 117 117 117 117 117 117 117 117 117 117 117 117 117 118 118 119 119 119 119 119 118 117 117 117 117 117
130 131 132 133 133 133 133 132 131 131 129 128 127 126 125 124 124 124 124 124 124 123 123 123 122 121 121 120 119 119 119 119 119 119 119 119 120 120 120 120 120 120 120 120 120 119 119 119 119 118 118 118 118 118 119 119 119 119 119 119 120 120 120 121 121 122 122 123 122 122 122 121 121 121
Wind_Direction
83 85 84 83 83 84 84 84 83 81 79 80 82 83 83 80 78 75 74 72 71 70 70 70 70 70 70 71 71 72 72 73 73 73 74 74 75 75 75 76 76 76 76 76 76 76 76 76 76 76 76 76 77 78 80 81 83 86 88 91 93 96 99 101 103 104 105 106 107 108 110 113 118 121
79 83 85 84 83 83 84 85 84 82 82 82 82 83 83 81 79 76 74 71 69 68 67 66 66 66 67 68 68 69 69 70 70 71 71 72 72 72 73 73 73 74 74 75 75 76 76 76 76 76 75 75 76 76 77 78 79 80 81 82 84 86 88 91 94 96 98 101 103 105 108 110 113 116
76 84 86 84 83 83 84 84 83 83 82 82 83 82 82 81 80 77 74 70 67 65 63 62 61 60 61 62 63 64 65 66 67 68 68 69 69 69 70 70 70 71 71 72 73 74 74 75 75 76 75 75 75 75 75 76 77 78 78 79 79 80 81 82 84 86 89 91 94 96 98 101 104 108
73 85 87 84 83 84 84 84 83 82 82 82 82 82 80 78 76 73 69 65 63 61 59 58 57 56 56 56 57 58 59 60 61 62 63 64 65 66 66 67 67 68 68 69 70 71 71 72 73 74 74 75 75 75 75 75 75 76 77 78 79 80 80 81 81 82 84 85 87 89 91 94 96 99
74 87 89 84 81 82 84 85 85 84 82 81 82 81 79 76 73 68 64 61 59 58 57 55 55 54 54 54 54 54 54 55 55 56 56 57 59 59 60 61 62 63 64 66 67 67 67 68 69 70 71 72 72 73 74 75 75 75 75 77 78 80 81 82 82 83 83 84 86 87 88 90 92 94
74 88 92 86 82 81 81 82 83 85 85 84 82 80 78 76 73 69 65 62 59 57 56 55 53 51 51 50 50 51 51 51 51 51 51 52 53 53 54 55 56 57 59 60 62 63 64 64 65 66 67 68 69 69 70 72 73 73 74 75 76 77 78 80 81 83 83 84 85 87 88 90 91 93
63 72 79 80 78 79 82 82 80 80 82 85 84 81 77 74 71 69 65 62 59 57 55 53 52 50 47 46 45 45 45 45 45 46 47 47 47 47 48 48 50 51 53 54 55 57 58 59 60 61 62 64 65 66 67 67 68 69 70 71 72 73 74 75 77 79 80 81 82 83 85 87 90 92
53 56 60 62 64 70 77 82 83 80 79 83 85 81 77 72 68 65 62 59 56 54 52 50 49 46 43 41 39 39 39 39 40 40 41 41 42 42 42 42 43 45 46 47 49 50 51 53 54 55 56 58 59 60 62 64 65 66 67 68 69 70 71 71 72 74 76 78 79 80 81 82 84 87
45 47 52 54 56 61 66 70 78 87 93 97 99 89 76 70 64 60 56 53 49 48 48 46 43 40 37 35 32 31 32 33 34 34 34 34 35 36 37 37 38 39 40 41 43 43 44 45 46 48 49 51 52 53 55 57 59 61 63 65 66 68 69 70 70 71 73 74 77 79 80 81 82 83
25 23 29 36 39 41 45 50 59 75 96 114 125 122 98 62 46 42 39 33 30 31 32 31 30 29 25 23 22 22 23 24 24 25 25 26 26 27 28 30 31 32 33 35 37 38 39 39 39 40 41 43 44 45 47 49 50 52 54 57 59 62 65 68 71 72 74 75 76 78 79 80 81 82
8 8 11 16 18 16 18 24 32 40 55 89 140 177 206 235 271 304 322 334 343 353 357 359 3 6 8 8 7 8 11 12 12 13 13 15 16 18 19 20 21 23 25 26 28 30 32 34 34 34 34 35 37 38 39 40 42 44 46 47 49 52 55 59 63 67 71 75 77 79 81 82 82 84
356 356 353 356 1 359 358 3 8 12 14 10 352 282 255 256 264 270 277 285 294 303 312 317 325 333 338 340 344 348 351 354 356 357 359 1 4 5 6 9 10 11 13 15 18 20 23 25 27 28 29 30 31 33 33 33 34 35 37 39 41 42 44 47 50 54 59 65 70 74 78 82 85 88
338 341 334 330 337 341 341 342 347 351 351 350 341 330 317 302 295 291 288 290 292 294 297 301 306 310 313 317 321 325 330 334 337 341 344 349 353 354 354 356 360 3 4 4 6 9 11 14 16 18 19 22 24 25 27 29 28 28 28 29 31 33 34 36 38 41 45 50 55 61 67 74 79 83
313 320 321 316 316 322 322 319 321 324 327 331 329 324 319 317 316 316 313 313 313 311 309 310 310 311 312 314 317 320 323 326 330 333 336 339 344 348 348 348 351 356 360 360 359 359 1 3 5 7 9 11 12 14 17 20 22 22 21 20 20 21 22 24 25 28 31 36 39 43 51 60 69 77
305 305 307 305 306 313 315 313 309 306 309 316 319 316 314 316 322 325 325 324 324 324 325 327 326 325 323 323 323 323 325 327 329 330 331 332 336 341 346 347 348 349 352 355 356 355 355 355 356 360 3 3 3 4 8 10 10 10 11 11 11 10 10 10 10 11 13 18 21 26 29 33 40 54
298 301 303 304 303 306 310 313 312 307 304 308 311 311 310 311 318 325 327 326 325 324 328 331 333 331 330 330 328 326 328 330 330 328 327 328 332 338 344 348 352 351 348 347 350 351 352 352 352 355 358 359 359 0 3 2 359 358 358 358 358 358 357 356 354 354 356 356 358 358 356 353 342 322
291 295 300 305 307 308 308 308 308 306 302 300 301 302 301 303 307 311 313 313 314 316 321 325 328 328 328 328 328 329 333 335 331 326 322 323 328 334 338 342 348 353 350 347 349 352 353 354 356 359 359 358 356 356 356 352 347 346 343 340 337 335 334 333 333 334 337 341 341 337 328 316 298 288
287 288 292 298 302 306 307 305 304 301 298 294 292 291 291 292 293 294 294 295 297 302 310 316 319 321 323 323 325 332 339 339 333 327 322 322 324 327 328 330 335 340 341 343 349 353 354 356 1 4 4 0 356 354 350 345 340 337 334 331 328 323 318 316 314 316 319 321 320 314 308 301 294 289
282 282 286 290 293 295 298 300 302 302 299 294 291 287 284 281 279 277 276 278 281 286 293 302 308 312 315 318 322 331 337 337 333 328 325 324 325 325 323 320 320 324 326 329 335 341 345 349 354 359 3 3 359 356 351 343 334 330 329 329 328 326 324 320 317 316 316 315 312 308 304 298 291 285
277 278 280 282 284 286 288 291 294 296 298 297 294 290 285 280 276 272 268 266 268 274 280 286 290 294 300 306 313 321 326 326 325 323 322 321 322 324 324 319 314 313 313 314 319 324 329 334 337 340 346 349 349 350 348 341 332 330 332 332 332 331 331 331 329 326 321 315 313 311 308 304 297 292
274 276 278 279 280 280 282 283 285 287 290 293 293 291 287 282 279 276 272 267 264 265 269 272 275 278 285 292 298 304 308 310 313 314 315 315 316 319 319 317 312 309 307 306 307 310 315 319 319 319 322 326 328 330 331 328 324 326 330 333 332 330 329 330 330 328 324 319 317 314 312 311 307 304
274 276 278 280 282 282 282 282 282 283 286 287 289 289 287 284 282 280 276 271 267 264 264 266 268 270 276 283 289 291 292 295 299 304 307 308 310 311 310 308 307 305 303 301 302 304 306 308 307 305 305 307 308 310 311 310 310 314 319 321 320 318 315 314 314 314 313 312 312 313 314 314 313 311
272 273 275 279 283 284 284 284 284 284 285 285 285 285 284 284 282 280 276 274 271 266 263 263 265 267 270 276 282 287 291 293 295 297 299 301 301 301 299 299 300 300 299 299 299 299 300 300 300 299 299 299 299 298 298 297 298 303 306 307 306 304 301 300 301 302 303 302 302 304 306 307 308 308
273 271 271 274 276 278 280 282 283 283 283 283 282 281 279 276 272 271 273 275 274 269 264 262 262 265 269 274 279 284 289 293 295 295 296 297 297 295 293 293 295 297 298 298 298 297 297 297 298 297 297 297 296 296 295 295 296 297 297 297 295 293 292 292 293 294 296 296 296 298 299 300 300 300
276 274 273 272 273 274 276 278 281 283 283 282 281 279 276 272 268 267 270 273 274 272 268 266 264 265 268 272 277 281 285 288 292 294 294 295 295 293 291 291 291 292 293 295 296 296 296 296 297 297 296 295 294 294 294 296 297 297 297 295 293 291 290 289 290 290 291 291 292 293 295 295 294 295
274 273 271 270 270 273 273 276 282 286 284 282 281 278 275 273 270 269 269 270 272 272 270 269 269 268 269 271 274 276 279 283 287 290 291 291 291 290 290 289 289 290 290 291 293 293 294 294 293 294 294 293 292 291 291 292 293 294 295 295 294 293 292 291 290 290 290 290 289 289 289 289 289 289
270 269 267 267 270 272 272 275 281 283 282 281 281 277 274 273 272 272 271 269 270 270 270 270 270 269 269 269 270 270 273 278 282 284 286 286 287 288 288 288 288 288 288 288 289 290 291 292 292 292 293 292 292 291 290 290 290 291 292 292 292 292 292 292 291 290 290 290 290 288 287 287 286 285
264 265 266 269 273 276 275 275 276 277 278 279 278 276 275 273 273 274 274 272 271 271 270 269 269 268 267 266 266 268 272 275 278 280 282 284 286 287 288 288 288 288 286 285 286 286 288 290 292 293 293 292 291 289 288 287 287 288 289 289 290 290 290 290 289 289 288 289 289 288 287 287 286 286
260 261 264 269 273 276 275 273 271 272 274 276 275 275 274 272 271 275 277 277 277 276 274 273 272 270 268 266 266 267 269 272 275 278 281 284 285 286 287 287 287 286 284 284 283 283 285 289 292 294 294 295 294 292 290 289 287 287 288 288 289 289 290 291 291 290 288 287 286 286 285 285 285 286
258 260 263 267 270 271 269 268 267 268 270 272 273 274 274 273 273 275 277 278 279 279 278 277 276 273 272 270 268 268 269 270 273 276 279 281 283 284 284 284 283 282 282 282 282 283 285 287 290 292 293 294 294 294 293 292 291 290 290 291 291 291 290 291 291 291 290 288 287 286 284 283 283 283
258 260 262 264 264 265 264 264 265 266 267 269 271 273 276 278 278 277 277 278 278 278 278 277 276 275 274 272 271 271 271 271 273 275 277 280 281 281 282 281 280 279 279 279 280 282 283 285 287 288 289 290 291 291 292 291 291 291 291 291 292 292 291 291 290 289 289 289 288 287 285 283 282 281
259 260 262 262 261 262 264 265 266 267 268 268 270 272 275 278 278 278 277 277 277 277 278 278 277 277 276 274 273 273 272 273 274 275 277 279 281 281 280 279 278 277 277 277 278 279 281 282 283 283 284 286 288 288 289 288 289 289 289 289 289 290 291 291 291 290 290 290 289 288 286 284 283 282
260 260 262 263 263 264 265 267 269 270 270 270 271 271 273 274 274 275 275 275 275 275 275 276 276 277 277 277 276 276 276 275 276 276 277 278 279 280 279 277 275 274 274 274 275 277 279 280 281 282 283 284 284 285 285 285 285 285 286 286 287 287 288 288 288 289 290 291 290 289 288 286 285 284
258 259 260 262 263 264 265 265 266 267 268 269 269 270 271 272 272 272 273 274 274 274 274 275 275 275 275 276 276 277 278 278 278 279 279 279 278 278 277 276 274 273 273 274 274 275 277 279 280 282 283 283 283 283 284 284 284 284 284 285 286 286 286 286 287 288 288 289 289 289 288 287 286 285
259 259 260 261 263 264 265 265 264 265 265 265 266 266 267 268 270 271 271 272 272 273 274 275 275 275 276 276 276 276 277 277 277 278 278 278 277 276 276 275 274 273 274 275 276 276 277 278 279 280 281 282 282 283 284 284 284 284 285 286 286 286 285 286 287 288 288 288 288 288 287 287 286 286
261 261 262 262 263 264 265 266 266 266 266 265 266 266 267 267 268 269 270 271 272 272 273 274 275 276 277 278 278 279 278 278 278 278 277 277 277 276 275 275 274 274 274 275 275 276 277 278 278 278 279 280 280 280 281 282 283 284 284 285 285 285 285 286 286 287 287 287 287 287 287 286 286 287
261 263 264 264 264 264 264 265 265 266 266 266 266 267 267 268 268 269 271 272 272 272 273 273 275 276 276 277 277 278 278 279 279 279 278 278 277 277 276 276 275 275 275 275 275 276 277 278 278 279 279 279 280 280 281 282 282 283 284 285 285 285 285 286 287 287 287 287 286 286 286 285 285 286
258 261 264 266 267 267 266 266 266 266 266 266 267 267 267 267 268 268 269 270 271 271 272 273 274 275 276 276 276 276 276 277 277 277 277 277 276 276 276 276 276 276 276 276 277 277 278 278 279 280 281 281 282 283 284 284 285 285 285 285 285 285 285 285 285 285 286 286 285 285 285 285 284 285
257 260 262 265 268 269 270 270 270 270 270 269 270 270 270 270 271 271 271 272 272 273 274 275 275 276 276 277 276 276 276 276 276 276 276 275 275 275 275 275 275 276 276 277 278 278 279 280 280 281 282 282 283 284 284 285 285 285 285 285 284 283 283 282 281 281 281 281 281 281 281 282 282 282
259 260 262 265 267 269 271 272 273 274 274 274 273 273 273 273 274 274 275 275 276 276 277 277 277 277 278 278 278 278 278 278 277 277 276 275 275 275 275 275 275 275 276 277 277 278 279 279 280 280 280 280 281 281 281 281 282 282 282 282 282 281 281 281 280 280 279 279 279 278 278 277 277 277
261 262 264 266 268 270 271 273 274 276 276 277 277 276 276 276 276 276 276 276 277 277 278 278 278 279 279 279 279 279 279 279 279 279 278 278 277 277 276 276 276 276 276 276 277 277 277 278 278 278 279 279 279 279 280 280 280 280 280 280 280 280 280 280 280 280 280 280 279 279 278 278 277 276
264 264 265 267 269 270 272 273 274 275 276 277 277 277 277 277 277 277 277 277 276 277 277 277 277 277 278 278 279 279 280 280 280 280 280 279 279 279 279 279 279 278 278 278 278 278 278 278 278 278 279 279 279 279 280 280 280 280 280 280 280 280 280 280 280 280 280 280 280 280 279 279 279 279
265 266 267 268 269 270 271 272 273 274 275 276 276 277 277 277 277 277 277 277 277 277 277 276 276 276 276 277 277 278 278 279 279 279 280 280 280 280 280 280 280 280 280 280 279 279 279 279 279 279 279 279 279 279 280 280 280 280 280 280 280 280 280 280 280 280 280 279 279 279 279 279 279 279
265 266 267 269 270 271 272 273 273 274 275 276 276 277 277 277 277 277 277 277 277 277 277 277 276 276 276 276 276 277 277 277 277 278 278 279 279 279 279 280 280 280 279 279 279 279 279 279 279 279 279 280 280 280 280 280 280 280 280 280 280 280 280 280 280 280 280 280 280 279 279 279 279 278
266 267 267 268 270 271 272 272 273 274 275 276 276 276 276 276 276 277 277 277 277 277 277 277 276 276 276 276 276 276 276 276 277 277 277 277 277 278 278 278 278 278 278 278 278 278 278 278 279 279 279 279 279 279 279 280 280 280 280 280 280 280 280 280 280 280 281 281 280 280 280 280 279 279
Height
10987 10986 10986 10986 10986 10986 10985 10984 10984 10984 10983 10983 10982 10981 10980 10979 10978 10976 10975 10973 10971 10970 10968 10967 10966 10964 10963 10962 10960 10958 10957 10955 10953 10951 10949 10947 10946 10944 10943 10941 10940 10938 10937 10935 10933 10931 10930 10929 10929 10928 10927 10926 10925 10924 10924 10923 10923 10923 10923 10923 10922 10922 10922 10922 10923 10923 10923 10924 10924 10924 10925 10925 10926 10927
10990 10989 10989 10988 10988 10988 10987 10987 10987 10986 10986 10986 10985 10984 10983 10982 10981 10979 10978 10977 10975 10974 10973 10971 10970 10969 10968 10967 10965 10964 10962 10961 10959 10957 10955 10954 10953 10951 10949 10948 10946 10945 10943 10941 10939 10937 10936 10935 10934 10933 10932 10931 10930 10929 10928 10927 10927 10926 10926 10926 10925 10925 10925 10925 10925 10925 10925 10925 10926 10926 10927 10927 10928 10928
10992 10992 10991 10991 10990 10990 10990 10989 10989 10988 10988 10988 10987 10987 10986 10985 10984 10983 10981 10980 10979 10978 10976 10975 10974 10973 10972 10971 10970 10969 10967 10966 10964 10962 10961 10960 10958 10957 10955 10954 10953 10951 10949 10947 10945 10944 10942 10941 10939 10938 10937 10936 10935 10934 10933 10932 10932 10931 10930 10929 10929 10929 10929 10928 10928 10928 10928 10928 10928 10928 10928 10929 10929 10930
10994 10994 10993 10993 10992 10992 10992 10991 10991 10991 10990 10990 10990 10989 10988 10988 10987 10985 10984 10983 10981 10980 10979 10978 10978 10977 10976 10975 10974 10973 10971 10970 10968 10967 10966 10964 10963 10962 10960 10959 10958 10956 10955 10953 10951 10950 10949 10947 10946 10944 10943 10942 10940 10939 10938 10937 10937 10936 10935 10934 10934 10933 10933 10933 10933 10932 10932 10931 10931 10931 10931 10931 10932 10932
10996 10995 10995 10995 10994 10994 10994 10994 10993 10993 10992 10992 10992 10991 10990 10989 10989 10988 10986 10985 10984 10983 10982 10982 10981 10980 10979 10978 10977 10976 10975 10973 10972 10970 10969 10968 10967 10966 10964 10963 10962 10960 10959 10957 10956 10956 10954 10953 10951 10950 10949 10948 10946 10945 10944 10943 10942 10941 10940 10939 10939 10938 10938 10938 10938 10937 10937 10936 10936 10936 10935 10935 10936 10936
10997 10997 10997 10996 10996 10996 10996 10996 10995 10995 10995 10994 10993 10993 10992 10991 10991 10990 10989 10988 10987 10986 10986 10985 10984 10984 10983 10982 10981 10979 10978 10976 10975 10974 10973 10971 10970 10969 10968 10967 10965 10964 10962 10961 10961 10960 10959 10958 10957 10956 10954 10953 10952 10951 10950 10948 10947 10946 10945 10944 10943 10943 10942 10942 10942 10942 10942 10942 10942 10941 10941 10941 10941 10941
10999 10998 10998 10998 10998 10998 10997 10997 10997 10997 10996 10996 10995 10995 10994 10993 10992 10992 10991 10990 10989 10989 10989 10988 10988 10987 10986 10985 10984 10982 10981 10979 10978 10977 10976 10974 10973 10972 10971 10970 10968 10967 10966 10965 10964 10963 10962 10961 10961 10960 10959 10958 10958 10957 10955 10954 10953 10952 10951 10950 10949 10948 10947 10947 10946 10946 10946 10946 10947 10947 10946 10946 10946 10946
10999 10999 10999 10999 10999 10998 10998 10998 10998 10998 10998 10997 10997 10996 10996 10995 10994 10994 10993 10992 10992 10991 10991 10990 10990 10989 10988 10987 10986 10985 10983 10982 10981 10980 10978 10977 10976 10975 10974 10973 10971 10970 10969 10968 10967 10966 10966 10965 10964 10963 10963 10962 10962 10961 10960 10959 10959 10958 10957 10956 10955 10954 10953 10952 10951 10951 10950 10950 10950 10950 10951 10951 10951 10951
11000 11000 10999 10999 10999 10998 10998 10998 10998 10998 10998 10998 10997 10997 10997 10996 10996 10995 10995 10994 10993 10993 10992 10992 10991 10990 10990 10989 10988 10987 10986 10984 10983 10982 10980 10979 10978 10977 10976 10975 10974 10973 10972 10971 10970 10969 10968 10968 10967 10966 10966 10965 10965 10964 10964 10963 10963 10962 10962 10961 10960 10960 10959 10958 10957 10957 10956 10955 10954 10954 10954 10954 10954 10955
11001 11001 11000 10999 10999 10998 10998 10998 10998 10998 10997 10997 10997 10997 10997 10997 10996 10996 10995 10995 10994 10994 10993 10993 10992 10991 10991 10990 10989 10988 10987 10986 10984 10983 10982 10981 10980 10979 10978 10977 10976 10975 10974 10973 10972 10972 10971 10970 10970 10969 10969 10968 10967 10967 10966 10966 10966 10965 10965 10965 10965 10964 10964 10963 10963 10962 10962 10961 10960 10960 10959 10959 10958 10958
11002 11002 11001 11000 10999 10999 10998 10998 10998 10998 10997 10997 10997 10997 10997 10996 10996 10996 10996 10995 10995 10994 10994 10993 10993 10992 10991 10991 10990 10989 10988 10987 10986 10985 10984 10982 10981 10980 10979 10978 10977 10977 10976 10975 10974 10974 10973 10972 10972 10971 10971 10970 10970 10969 10969 10968 10968 10968 10968 10967 10967 10967 10967 10967 10966 10966 10966 10965 10965 10965 10964 10964 10964 10963
11002 11002 11001 11001 11000 11000 10999 10998 10998 10998 10997 10997 10997 10997 10996 10996 10996 10996 10995 10995 10995 10994 10994 10993 10993 10992 10991 10991 10990 10989 10988 10988 10987 10986 10985 10984 10983 10981 10980 10980 10979 10978 10977 10976 10976 10975 10975 10974 10974 10973 10973 10972 10972 10971 10971 10970 10970 10970 10969 10969 10969 10969 10969 10969 10969 10969 10968 10968 10968 10968 10968 10968 10968 10967
11003 11002 11002 11001 11000 11000 10999 10999 10998 10998 10997 10997 10997 10996 10996 10995 10995 10995 10994 10994 10994 10994 10993 10993 10992 10992 10991 10990 10990 10989 10988 10987 10986 10986 10985 10985 10984 10983 10981 10980 10980 10979 10978 10977 10976 10976 10975 10975 10975 10975 10974 10974 10973 10972 10972 10972 10971 10971 10971 10971 10971 10970 10970 10970 10970 10970 10970 10970 10970 10970 10970 10970 10970 10970
11003 11003 11002 11001 11000 11000 10999 10999 10998 10997 10997 10996 10996 10996 10995 10995 10994 10994 10993 10993 10993 10993 10992 10992 10992 10991 10990 10990 10989 10988 10987 10986 10986 10985 10984 10983 10983 10982 10982 10981 10980 10979 10979 10978 10977 10976 10976 10976 10975 10975 10975 10974 10974 10974 10973 10973 10973 10972 10972 10972 10972 10971 10971 10971 10971 10971 10971 10971 10971 10971 10971 10971 10971 10971
11003 11003 11002 11001 11000 11000 10999 10999 10998 10997 10997 10996 10995 10995 10994 10994 10994 10993 10992 10992 10991 10991 10991 10991 10991 10990 10989 10989 10988 10987 10987 10986 10985 10984 10983 10982 10981 10981 10981 10981 10980 10979 10978 10977 10977 10976 10976 10976 10975 10975 10975 10974 10974 10974 10974 10974 10973 10973 10973 10972 10972 10972 10972 10972 10972 10972 10972 10972 10972 10972 10972 10972 10972 10972
11002 11002 11002 11001 11000 11000 10999 10999 10998 10998 10997 10996 10995 10994 10994 10993 10993 10993 10992 10992 10991 10990 10990 10990 10989 10989 10988 10987 10987 10987 10986 10986 10985 10984 10983 10982 10981 10980 10979 10979 10980 10980 10978 10977 10976 10976 10976 10975 10975 10975 10974 10974 10974 10974 10974 10974 10973 10973 10973 10973 10972 10972 10972 10972 10972 10972 10972 10972 10972 10972 10972 10972 10972 10972
11000 11000 11000 11000 11000 10999 10998 10998 10998 10997 10997 10996 10995 10994 10993 10993 10992 10992 10991 10991 10990 10989 10989 10988 10988 10987 10987 10986 10986 10986 10986 10986 10985 10984 10983 10982 10981 10980 10979 10978 10978 10978 10978 10977 10976 10975 10975 10975 10975 10974 10974 10974 10974 10974 10974 10973 10973 10973 10972 10972 10972 10971 10971 10971 10971 10971 10971 10972 10972 10972 10972 10972 10971 10971
10997 10997 10997 10998 10998 10997 10997 10997 10996 10996 10996 10995 10995 10994 10993 10992 10992 10991 10991 10990 10989 10988 10987 10987 10986 10986 10985 10984 10984 10984 10985 10985 10984 10983 10982 10982 10981 10981 10979 10978 10977 10977 10977 10976 10975 10975 10974 10974 10974 10974 10974 10974 10974 10973 10973 10973 10972 10972 10971 10971 10971 10971 10970 10970 10970 10970 10971 10971 10971 10971 10971 10971 10971 10972
10994 10994 10994 10994 10995 10995 10995 10994 10994 10994 10994 10994 10993 10993 10992 10991 10991 10990 10989 10989 10988 10987 10986 10985 10985 10984 10984 10983 10983 10983 10983 10983 10982 10981 10981 10981 10981 10980 10979 10978 10977 10977 10976 10975 10975 10975 10974 10974 10974 10973 10973 10973 10973 10973 10973 10972 10972 10971 10971 10970 10970 10970 10969 10969 10969 10970 10970 10970 10970 10969 10969 10970 10970 10971
10990 10990 10991 10991 10991 10991 10991 10991 10991 10991 10991 10991 10991 10991 10991 10990 10989 10988 10988 10987 10987 10986 10985 10984 10983 10982 10982 10981 10981 10981 10981 10980 10980 10980 10979 10979 10979 10979 10979 10977 10976 10975 10975 10975 10974 10974 10974 10974 10973 10973 10973 10972 10972 10972 10972 10971 10970 10970 10970 10970 10969 10969 10969 10969 10969 10969 10969 10968 10968 10967 10967 10967 10967 10968
10986 10986 10986 10987 10987 10987 10987 10987 10987 10987 10988 10988 10988 10988 10988 10988 10988 10987 10986 10985 10984 10983 10982 10982 10981 10980 10979 10979 10979 10979 10979 10978 10978 10977 10977 10977 10977 10977 10977 10976 10974 10974 10973 10973 10973 10973 10973 10973 10973 10972 10971 10971 10971 10970 10970 10969 10969 10969 10969 10969 10969 10968 10968 10968 10968 10967 10967 10966 10966 10965 10965 10965 10965 10965
10983 10983 10982 10982 10982 10982 10982 10983 10983 10983 10984 10984 10984 10984 10985 10985 10985 10984 10984 10983 10982 10981 10980 10979 10978 10977 10976 10976 10976 10976 10976 10976 10976 10976 10975 10975 10974 10974 10974 10973 10972 10971 10971 10971 10971 10971 10972 10972 10972 10971 10971 10970 10969 10969 10968 10967 10966 10966 10967 10967 10967 10967 10966 10966 10966 10965 10965 10964 10964 10963 10963 10963 10963 10963
10979 10979 10979 10978 10978 10978 10978 10978 10978 10978 10978 10978 10979 10980 10981 10982 10982 10981 10980 10979 10978 10977 10976 10975 10974 10973 10972 10973 10973 10973 10973 10973 10973 10973 10973 10972 10972 10971 10970 10970 10969 10968 10968 10968 10969 10969 10969 10969 10970 10970 10970 10969 10968 10968 10967 10965 10964 10964 10964 10964 10964 10964 10963 10963 10963 10962 10962 10962 10961 10961 10961 10961 10961 10961
10973 10974 10974 10975 10974 10973 10973 10973 10973 10973 10973 10973 10974 10975 10977 10979 10980 10978 10975 10974 10973 10973 10972 10971 10970 10969 10969 10969 10969 10969 10969 10970 10970 10970 10970 10970 10969 10968 10967 10967 10966 10966 10965 10965 10966 10966 10966 10966 10966 10967 10967 10967 10966 10966 10965 10964 10963 10962 10962 10962 10961 10960 10960 10960 10959 10959 10959 10959 10958 10958 10958 10958 10957 10957
10966 10968 10969 10970 10969 10968 10968 10967 10967 10967 10967 10967 10967 10968 10970 10972 10972 10971 10969 10969 10968 10968 10968 10967 10967 10966 10966 10965 10965 10965 10966 10966 10966 10967 10967 10967 10966 10964 10964 10963 10964 10963 10962 10962 10962 10962 10962 10962 10962 10962 10963 10963 10963 10963 10962 10961 10960 10959 10959 10958 10958 10957 10956 10956 10956 10955 10955 10955 10955 10955 10954 10954 10954 10953
10960 10962 10963 10964 10963 10962 10962 10962 10961 10961 10961 10961 10961 10961 10962 10962 10963 10963 10963 10963 10963 10963 10963 10963 10962 10962 10962 10962 10961 10961 10961 10961 10962 10963 10963 10963 10962 10961 10960 10960 10960 10960 10959 10958 10958 10957 10957 10957 10957 10957 10957 10958 10959 10960 10959 10958 10957 10955 10954 10953 10953 10952 10952 10952 10952 10951 10950 10950 10950 10950 10950 10950 10949 10949
10954 10955 10956 10957 10957 10957 10956 10956 10955 10955 10955 10955 10955 10954 10954 10954 10955 10956 10957 10957 10957 10958 10958 10958 10957 10957 10957 10957 10956 10955 10955 10955 10956 10957 10958 10958 10957 10956 10955 10955 10955 10955 10954 10953 10952 10952 10952 10952 10952 10952 10952 10953 10953 10954 10954 10954 10953 10952 10950 10949 10947 10947 10947 10947 10947 10947 10946 10945 10945 10945 10945 10944 10943 10943
10949 10949 10950 10951 10950 10950 10950 10950 10949 10949 10949 10949 10948 10948 10948 10948 10949 10950 10950 10950 10951 10951 10951 10952 10952 10952 10952 10952 10951 10950 10949 10949 10949 10950 10951 10952 10951 10951 10950 10950 10949 10949 10948 10947 10946 10945 10945 10944 10945 10946 10947 10947 10948 10948 10947 10947 10947 10947 10946 10945 10943 10941 10940 10940 10940 10941 10941 10940 10940 10940 10939 10937 10936 10936
10944 10944 10945 10945 10944 10944 10942 10942 10942 10942 10941 10940 10941 10941 10941 10942 10943 10944 10944 10944 10944 10944 10944 10945 10945 10945 10945 10945 10945 10944 10944 10943 10943 10943 10944 10945 10945 10944 10944 10944 10943 10941 10940 10939 10938 10937 10937 10937 10937 10938 10938 10939 10939 10940 10940 10940 10939 10939 10939 10939 10938 10936 10935 10933 10932 10932 10933 10933 10933 10933 10932 10931 10930 10929
10938 10939 10940 10940 10938 10936 10934 10933 10934 10934 10933 10933 10934 10934 10934 10936 10938 10938 10938 10938 10938 10937 10937 10937 10938 10938 10938 10938 10938 10938 10937 10937 10936 10936 10937 10938 10938 10938 10937 10937 10936 10934 10932 10930 10929 10929 10929 10929 10929 10929 10929 10929 10929 10929 10930 10930 10930 10930 10929 10929 10929 10928 10928 10926 10925 10924 10924 10924 10924 10924 10923 10923 10922 10921
10933 10933 10934 10935 10931 10927 10925 10925 10926 10927 10926 10927 10928 10927 10926 10927 10930 10930 10930 10931 10931 10930 10931 10930 10930 10931 10931 10930 10930 10930 10931 10931 10930 10929 10929 10930 10930 10930 10930 10929 10927 10925 10923 10921 10920 10920 10920 10920 10921 10921 10921 10920 10920 10920 10919 10919 10919 10919 10919 10918 10917 10916 10916 10916 10916 10915 10915 10914 10914 10914 10914 10913 10912 10911
10925 10924 10924 10923 10921 10919 10917 10917 10918 10919 10919 10920 10920 10920 10919 10920 10920 10919 10920 10921 10922 10922 10922 10922 10922 10922 10922 10922 10922 10923 10923 10923 10922 10921 10921 10921 10921 10921 10921 10920 10918 10916 10913 10911 10911 10911 10911 10911 10912 10911 10911 10911 10912 10912 10911 10909 10908 10908 10908 10907 10906 10905 10904 10903 10903 10903 10903 10903 10903 10903 10904 10903 10902 10901
10914 10914 10912 10910 10908 10909 10911 10911 10910 10910 10911 10912 10912 10911 10911 10912 10911 10910 10910 10911 10912 10913 10913 10913 10913 10913 10912 10911 10913 10914 10914 10914 10913 10913 10912 10912 10912 10911 10911 10910 10908 10905 10903 10901 10900 10901 10901 10901 10901 10902 10901 10901 10902 10902 10902 10900 10899 10897 10896 10896 10895 10894 10893 10891 10890 10889 10889 10889 10889 10889 10890 10891 10890 10889
10903 10903 10902 10899 10897 10897 10900 10902 10901 10901 10901 10902 10902 10902 10902 10901 10900 10900 10900 10901 10902 10902 10903 10903 10903 10903 10903 10902 10903 10904 10904 10904 10903 10902 10902 10901 10901 10900 10900 10898 10897 10895 10893 10892 10891 10891 10890 10890 10890 10890 10890 10890 10889 10889 10889 10889 10888 10887 10885 10883 10882 10881 10880 10879 10878 10877 10876 10876 10875 10874 10875 10875 10876 10875
10893 10893 10892 10891 10888 10886 10887 10888 10888 10889 10890 10890 10890 10891 10891 10890 10889 10889 10890 10890 10890 10890 10890 10891 10891 10891 10892 10892 10892 10892 10893 10893 10893 10892 10891 10890 10889 10888 10887 10886 10884 10883 10882 10881 10881 10880 10879 10878 10877 10878 10878 10878 10878 10876 10875 10874 10874 10873 10872 10871 10869 10868 10867 10865 10864 10863 10862 10861 10860 10859 10858 10858 10859 10859
10882 10883 10883 10882 10881 10879 10877 10877 10876 10876 10877 10877 10877 10877 10877 10877 10877 10877 10877 10878 10878 10878 10878 10878 10877 10877 10877 10878 10878 10878 10878 10879 10879 10879 10878 10878 10877 10875 10874 10873 10872 10871 10870 10870 10868 10867 10866 10865 10864 10864 10865 10865 10866 10865 10864 10862 10861 10858 10857 10856 10855 10854 10852 10851 10849 10848 10847 10845 10844 10842 10840 10839 10839 10840
10870 10871 10872 10872 10872 10872 10870 10869 10868 10867 10866 10866 10866 10865 10865 10864 10864 10864 10864 10865 10865 10866 10865 10865 10865 10865 10866 10866 10866 10866 10865 10865 10865 10864 10864 10863 10862 10861 10859 10859 10859 10858 10858 10857 10855 10854 10852 10851 10850 10849 10849 10848 10849 10849 10849 10849 10848 10845 10842 10840 10839 10837 10836 10834 10832 10830 10829 10828 10827 10825 10823 10822 10821 10821
10857 10857 10858 10859 10860 10861 10861 10860 10859 10858 10858 10857 10856 10855 10855 10854 10854 10854 10854 10853 10853 10853 10853 10853 10854 10854 10854 10854 10854 10854 10853 10852 10852 10852 10851 10850 10848 10847 10846 10845 10845 10845 10844 10843 10841 10839 10837 10836 10834 10833 10832 10830 10829 10829 10828 10829 10829 10828 10825 10823 10822 10821 10820 10818 10816 10815 10813 10812 10811 10809 10807 10805 10804 10803
10845 10845 10845 10845 10845 10846 10846 10847 10847 10847 10847 10847 10846 10845 10844 10843 10843 10843 10842 10842 10841 10840 10840 10840 10841 10841 10841 10840 10840 10840 10839 10839 10838 10838 10837 10836 10834 10833 10833 10832 10832 10831 10830 10828 10826 10824 10822 10821 10819 10817 10815 10813 10812 10810 10810 10809 10809 10808 10807 10806 10806 10806 10806 10805 10804 10803 10801 10800 10799 10797 10794 10792 10790 10788
10832 10832 10831 10831 10831 10831 10831 10831 10831 10832 10832 10833 10833 10833 10832 10832 10831 10830 10829 10828 10827 10827 10826 10826 10826 10826 10826 10825 10825 10824 10824 10824 10823 10822 10821 10820 10819 10819 10819 10818 10818 10817 10816 10815 10813 10811 10809 10807 10805 10803 10802 10800 10799 10797 10796 10795 10794 10793 10792 10790 10790 10790 10790 10790 10789 10789 10788 10787 10786 10784 10782 10780 10778 10776
10818 10818 10817 10817 10817 10817 10817 10817 10816 10816 10817 10817 10817 10817 10817 10817 10817 10817 10816 10815 10814 10813 10812 10812 10811 10811 10810 10810 10809 10809 10808 10808 10807 10805 10804 10803 10803 10803 10803 10803 10802 10801 10800 10799 10798 10796 10794 10792 10790 10789 10788 10788 10786 10784 10783 10781 10780 10779 10778 10777 10775 10774 10773 10773 10772 10772 10771 10770 10769 10767 10765 10763 10761 10759
10803 10803 10803 10803 10803 10803 10803 10802 10802 10802 10802 10801 10802 10802 10802 10802 10802 10801 10801 10800 10800 10799 10798 10798 10797 10796 10795 10794 10794 10793 10792 10791 10790 10788 10787 10786 10785 10785 10785 10785 10785 10784 10783 10782 10780 10779 10777 10776 10774 10773 10772 10771 10770 10768 10767 10765 10763 10762 10761 10760 10759 10757 10756 10755 10753 10753 10753 10753 10751 10748 10746 10744 10742 10739
10787 10787 10787 10788 10788 10788 10788 10788 10788 10788 10787 10787 10787 10787 10786 10786 10785 10785 10784 10784 10783 10783 10782 10782 10781 10781 10780 10779 10779 10777 10776 10775 10773 10771 10770 10769 10768 10768 10767 10767 10766 10766 10764 10763 10761 10760 10759 10758 10756 10755 10754 10753 10752 10751 10749 10747 10746 10744 10743 10742 10741 10739 10738 10736 10734 10733 10733 10733 10732 10730 10729 10727 10724 10721
10771 10771 10772 10772 10772 10772 10773 10773 10772 10772 10772 10771 10771 10770 10770 10769 10768 10767 10766 10766 10765 10765 10765 10764 10764 10764 10763 10763 10762 10760 10759 10757 10756 10755 10754 10753 10752 10751 10750 10749 10748 10747 10746 10744 10743 10742 10741 10739 10738 10737 10736 10735 10733 10732 10730 10729 10727 10726 10725 10723 10722 10721 10719 10717 10714 10712 10710 10710 10710 10710 10709 10708 10706 10704
10754 10755 10756 10756 10757 10757 10756 10756 10756 10755 10755 10755 10754 10754 10753 10752 10751 10750 10749 10748 10748 10747 10747 10746 10746 10745 10744 10744 10743 10741 10740 10739 10738 10737 10737 10737 10736 10734 10733 10732 10730 10729 10728 10726 10725 10724 10723 10721 10720 10719 10717 10716 10714 10713 10711 10709 10708 10707 10706 10704 10703 10702 10700 10698 10696 10693 10690 10688 10687 10686 10685 10685 10684 10682